SCP
0 0 0 0 0 0 0 0 0 0 0 0 0 0 0 0 0 0 0 0 0 0 0 0 0 0 0 0 0 0 0 0 0 0 0 0 0 0 0 0 0 0 0 0
0 0 0 0 0 0 0 0 0 0 0 0 0 0 0 0 0 0 0 0 0 0 0 0 0 0 0 0 0 0 0 0 0 0 0 0 0 0 0 0 0 0 0 0
0 0 0 0 0 0 0 0 0 0 0 0 0 0 0 0 0 0 0 0 0 0 0 0 0 0 0 0 0 0 0 0 0 0 0 0 0 0 0 0 0 0 0 0
0 0 0 0 0 0 0 0 0 0 0 0 0 0 0 0 0 0 0 0 0 0 0 0 0 0 0 0 0 0 0 0 0 0 0 0 0 0 0 0 0 0 0 0
0 0 0 0 0 0 0 0 0 0 0 0 0 0 0 0 0 0 0 0 0 0 0 0 0 0 0 0 0 0 0 0 0 0 0 0 0 0 0 0 0 0 0 0
0 0 0 0 0 0 0 0 0 0 0 0 0 0 0 0 0 0 0 0 0 0 0 0 0 0 0 0 0 0 0 0 0 0 0 0 0 0 0 0 0 0 0 0
0 0 0 0 0 0 0 0 0 0 0 0 0 0 0 0 0 0 0 0 0 0 0 0 0 0 0 0 0 0 0 0 0 0 0 0 0 0 0 0 0 0 0 0
0 0 0 0 0 0 0 0 0 0 0 0 0 0 0 0 0 0 0 0 0 0 0 0 0 0 0 0 0 0 0 0 0 0 0 0 0 0 0 0 0 0 0 0
0 0 0 0 0 0 0 0 0 0 0 0 0 0 0 0 0 0 0 0 0 0 0 0 0 0 0 0 0 0 0 0 0 0 0 0 0 0 0 0 0 0 0 0
0 0 0 0 0 0 0 0 0 0 0 0 0 0 0 0 0 0 0 0 0 0 0 0 0 0 0 0 0 0 0 0 0 0 0 0 0 0 0 0 0 0 0 0
0 0 0 0 0 0 0 0 0 0 0 0 0 0 0 0 0 0 0 0 0 0 0 0 0 0 0 0 0 0 0 0 0 0 0 0 0 0 0 0 0 0 0 0
0 0 0 0 0 0 0 0 0 0 0 0 0 0 0 0 0 0 0 0 0 0 0 0 0 0 0 0 0 0 0 0 0 0 0 0 0 0 0 0 0 0 0 0
0 0 0 0 0 0 0 0 0 0 0 0 0 0 -0 0 0 0 0 0 0 0 0 0 0 0 0 0 0 0 0 0 0 0 0 0 0 0 0 0 0 0 0 0
0 0 0 0 0 0 0 0 0 0 0 0 0 0 -0 0 0 0 0 0 0 0 0 0 0 0 0 0 0 0 -0 0 0 0 0 0 0 0 0 0 0 0 0 0
0 0 0 0 0 0 0 0 0 0 0 0 0 -0 -0 0 0 0 0 0 0 0 0 0 0 0 0 0 0 0 -0 -0 -0 0 0 0 0 0 0 0 0 0 0 0
-0 0 0 0 0 0 0 0 0 0 0 0 0 0 0 0 0 0 0 0 0 0 0 0 0 0 0 0 0 0 0 0 0 0 0 0 0 0 0 0 0 0 0 0
-0 -0 0 0 0 0 0 0 0 0 0 0 0 0 0 0 0 0 0 0 0 0 0 0 0 0 0 0 0 0 0 0 0 0 0 0 0 0 0 0 0 0 0 0
0 0 0 0 0 0 0 0 0 0 0 0 0 0 0 0 0 0 0 0 0 0 0 0 0 0 0 0 0 0 0 0 0 0 0 0 0 0 0 0 0 0 0 0
0 0 0 0 0 0 0 0 0 0 0 0 0 0 0 0 0 0 0 0 0 0 0 0 0 0 0 0 0 0 0 0 0 0 0 0 0 0 0 0 0 0 0 0
0 0 0 0 0 0 0 0 0 0 0 0 0 0 0 0 0 0 0 0 0 0 0 0 0 0 0 0 0 0 0 0 0 0 0 0 0 0 0 0 0 0 0 0
0 0 0 0 0 0 0 0 0 0 0 0 0 0 0 0 0 0 0 0 0 0 0 0 0 0 0 0 0 0 0 0 0 0 0 0 0 0 0 0 0 0 0 0
0 0 0 0 0 0 0 0 0 0 0 0 0 0 0 0 0 0 0 0 0 0 0 0 0 0 0 0 0 0 0 0 0 0 0 0 0 0 0 0 0 0 0 0
0 0 0 0 0 0 0 0 0 0 0 0 0 0 0 0 0 0 0 0 0 0 0 0 0 0 0 0 0 0 0 0 0 0 0 0 0 0 0 0 0 0 0 0
0 0 0 0 0 0 0 0 0 0 0 0 0 0 0 0 0 0 0 0 0 0 0 0 0 0 0 0 0 0 0 0 0 0 0 0 0 0 0 0 0 0 0 0
0 0 0 0 0 0 0 0 0 0 0 0 0 0 0 0 0 0 0 0 0 0 0 0 0 0 0 0 0 0 0 0 0 0 0 0 0 0 0 0 0 0 0 0
0 0 0 0 0 0 0 0 0 0 0 0 0 0 0 0 0 0 0 0 0 0 0 0 0 0 0 0 0 0 0 0 0 0 0 0 0 0 0 0 0 0 0 0
Wind_Speed
13 11 10 7 5 4 5 8 9 1 4 3 8 7 4 9 7 5 5 4 3 1 3 5 3 2 3 4 5 5 4 4 4 3 3 4 4 4 4 3 4 4 4 4
12 14 9 5 4 6 10 9 7 3 3 3 8 9 4 6 6 3 3 3 2 2 2 4 3 3 4 4 4 5 5 5 3 2 3 3 4 3 3 3 4 4 4 4
10 6 7 6 6 7 8 4 5 7 6 8 9 9 4 8 6 4 2 2 3 2 3 4 4 3 4 4 5 6 5 5 5 5 3 4 4 3 4 4 3 4 4 4
7 4 4 5 4 4 5 5 5 8 9 7 4 4 3 9 7 6 4 3 1 2 2 2 3 4 4 4 5 5 6 6 6 5 4 5 4 4 5 4 4 5 4 3
6 6 5 5 1 2 3 3 6 8 9 9 7 6 4 7 4 5 4 2 2 2 2 2 2 3 3 4 4 4 5 5 5 5 5 4 3 3 4 4 5 5 4 4
3 3 1 1 3 1 3 6 9 9 7 8 3 2 3 4 6 5 4 3 3 3 2 1 2 3 3 3 3 3 3 4 4 5 5 4 4 5 5 5 5 4 3 3
7 7 5 2 3 5 6 7 5 5 6 3 5 1 4 9 7 5 4 3 3 3 1 2 3 3 2 2 2 3 4 4 4 5 5 5 5 5 5 5 5 5 4 3
9 9 8 5 3 3 5 6 6 6 4 1 4 2 7 8 6 4 3 2 1 1 2 2 2 2 1 1 2 3 3 3 4 4 5 5 5 4 4 5 4 4 4 4
4 4 6 4 0 4 5 4 3 5 8 6 3 7 9 6 6 4 3 2 2 2 2 2 2 1 1 1 2 2 3 3 3 4 4 4 5 5 5 5 4 4 4 5
5 3 7 4 3 4 5 7 4 4 5 5 1 4 6 5 3 2 2 3 3 3 2 2 2 1 1 1 0 1 2 2 3 4 4 4 4 5 4 4 5 5 5 5
5 4 7 7 6 6 6 6 4 4 4 4 3 4 6 5 4 2 1 2 3 3 2 2 2 1 1 0 1 1 1 2 3 4 4 5 4 4 4 4 4 5 5 6
2 5 5 8 5 2 3 5 4 4 3 2 2 3 4 5 2 0 1 1 3 4 3 3 2 1 1 0 1 2 2 2 2 3 4 5 4 4 5 5 5 6 6 6
4 5 5 5 5 4 5 5 5 4 4 4 3 3 4 4 3 3 2 1 2 4 4 3 3 2 1 0 1 1 1 1 1 2 3 4 5 5 5 5 6 6 6 6
4 8 10 6 4 3 5 6 5 5 5 5 3 1 2 2 2 3 3 1 1 3 4 4 3 3 2 1 1 0 1 0 0 1 2 3 4 4 4 5 5 6 6 6
5 9 11 7 2 3 4 5 7 8 8 7 5 5 4 4 4 3 2 2 2 2 3 3 4 3 3 3 2 1 0 0 1 1 1 3 4 4 4 4 5 5 5 6
6 8 10 8 6 6 8 8 8 9 8 8 8 6 2 4 2 0 1 3 2 2 2 3 3 3 3 2 2 2 1 1 0 1 1 2 3 3 4 4 4 5 5 5
7 8 9 8 6 6 9 12 12 10 8 7 6 3 2 1 1 1 2 1 2 2 2 2 2 3 3 1 2 2 1 1 1 1 1 1 2 3 3 4 4 5 4 4
7 8 6 7 6 8 1 4 5 8 8 6 4 1 1 1 1 2 1 1 1 2 3 2 2 2 2 2 3 2 3 1 0 1 1 0 1 2 2 3 3 3 4 4
6 6 5 6 8 7 6 6 5 5 5 5 4 2 1 1 1 3 4 3 2 3 3 2 1 2 2 2 2 1 2 2 2 1 1 1 0 1 2 3 3 3 3 4
5 6 6 5 6 6 4 10 6 3 5 5 4 2 2 2 1 4 5 4 4 4 3 2 1 1 1 2 2 1 2 1 1 1 1 0 0 1 1 2 3 3 3 3
7 6 8 8 7 3 8 9 6 3 2 6 5 3 2 1 5 5 5 4 4 3 3 2 1 1 0 1 1 2 2 1 2 2 1 1 1 2 2 2 2 3 3 3
8 6 8 7 7 4 9 7 4 3 5 5 4 3 3 4 5 4 4 4 3 3 3 2 2 1 1 1 1 2 1 0 1 1 1 2 3 3 2 2 3 3 3 4
7 6 3 4 2 5 4 3 4 2 2 3 4 4 3 3 3 4 3 3 3 3 3 2 1 1 2 2 2 2 2 1 2 3 3 4 4 4 3 3 3 3 3 2
6 7 5 4 5 7 6 5 4 2 1 3 3 2 2 2 3 4 3 3 3 2 2 2 1 1 1 1 1 0 1 1 3 4 4 4 4 4 4 3 3 2 2 2
5 3 6 8 4 5 6 6 6 5 4 4 3 2 2 2 2 3 3 3 3 3 3 2 1 0 1 1 1 0 1 2 3 4 4 4 4 3 3 3 3 3 3 3
10 7 7 6 5 7 8 10 9 7 6 5 5 4 3 3 3 3 3 4 3 3 2 2 2 1 1 2 2 2 2 3 4 4 4 2 2 2 2 3 3 6 7 7
Wind_Direction
200 217 221 212 215 257 270 267 274 220 143 270 288 289 198 171 180 211 231 231 228 133 95 97 76 46 17 21 18 359 353 0 5 5 339 337 327 323 315 317 332 331 320 318
200 221 219 202 212 228 248 266 299 4 96 299 292 288 244 166 172 190 265 294 301 81 59 92 78 50 31 30 14 349 0 349 3 357 336 323 322 316 315 334 334 331 324 319
217 226 201 217 232 259 278 308 337 328 317 273 270 269 217 133 142 154 189 289 322 32 26 31 38 30 30 34 16 357 355 354 9 357 352 340 334 326 339 337 332 324 315 310
207 229 233 232 242 271 300 21 338 310 295 289 273 297 165 139 156 166 174 196 184 74 55 49 34 31 18 35 28 358 358 5 8 356 356 344 334 337 328 324 318 318 313 315
190 188 221 246 36 323 352 352 294 281 280 283 258 258 134 138 143 132 130 143 119 102 78 52 51 50 20 37 28 358 360 4 3 342 327 318 337 329 318 320 319 322 320 325
151 155 203 76 98 41 302 264 253 248 256 261 234 273 105 102 79 82 104 123 122 112 107 101 77 74 46 41 20 357 356 1 343 330 329 339 343 334 328 329 328 326 321 320
177 179 149 153 208 191 245 271 269 236 219 213 112 185 83 88 75 62 57 69 89 108 105 82 66 56 44 20 7 349 3 356 345 338 336 340 342 338 338 335 329 327 324 322
202 182 165 181 253 296 266 282 299 311 311 27 162 159 101 100 96 91 101 98 103 132 111 87 80 75 50 360 12 8 358 338 339 337 339 339 348 348 335 331 330 329 322 313
295 128 124 128 112 300 291 280 335 316 292 282 183 123 120 128 137 144 151 154 183 142 125 125 111 79 43 24 28 12 345 343 346 341 336 351 348 341 340 337 335 329 323 321
299 154 165 155 213 216 287 324 307 274 306 302 207 131 125 135 120 127 164 170 160 143 144 131 126 118 53 32 13 312 308 331 352 347 345 353 343 340 336 333 341 335 330 328
273 248 170 174 212 220 201 224 243 278 284 302 336 62 73 85 69 25 15 106 120 129 136 129 132 144 162 259 298 305 338 23 17 356 348 340 336 332 334 343 342 337 335 331
272 295 233 189 166 136 282 283 282 275 300 273 278 99 97 103 108 105 12 77 121 129 137 146 149 173 180 15 345 340 9 34 25 360 340 328 327 341 351 350 349 347 344 339
346 278 265 169 158 170 221 231 261 291 292 277 281 124 159 152 157 139 123 106 134 145 159 162 157 179 178 257 287 304 21 43 16 360 330 327 343 355 354 351 353 348 345 347
328 274 278 298 2 138 195 200 217 244 257 273 275 88 171 143 95 94 111 131 151 154 162 166 163 187 187 211 265 307 31 22 342 340 320 335 343 352 358 360 355 349 351 355
251 269 278 283 289 291 266 234 214 229 254 278 317 339 344 41 64 69 115 152 165 172 174 173 172 192 190 195 206 171 161 302 343 333 349 4 354 4 359 357 355 355 357 358
239 273 276 268 250 248 253 244 232 228 242 263 282 290 27 66 85 97 179 147 167 190 191 179 182 181 197 204 182 150 163 147 318 342 32 24 349 358 350 352 359 356 351 351
224 249 273 271 238 234 249 230 218 221 224 234 255 284 42 7 42 33 29 99 162 172 161 171 191 173 186 184 119 102 91 98 270 351 51 37 359 355 355 354 355 348 344 355
248 248 261 272 243 239 163 79 178 211 224 223 239 269 336 328 81 108 88 54 116 137 138 154 178 158 180 171 143 148 164 188 206 33 2 40 344 337 341 338 335 335 340 347
284 284 273 268 270 259 171 156 165 199 224 201 216 189 119 337 232 173 126 97 77 97 113 129 141 151 177 142 127 188 192 172 171 165 279 304 301 330 332 326 323 324 330 328
247 272 265 268 267 283 117 128 139 208 233 164 163 143 133 240 249 99 94 94 89 92 96 106 128 193 159 132 124 277 282 224 169 157 192 323 2 329 309 307 311 313 308 304
195 223 237 259 267 270 110 120 138 216 138 127 134 132 154 84 77 96 97 99 99 109 115 122 158 167 61 96 153 259 294 6 72 83 40 334 286 264 257 267 283 293 299 306
196 209 212 221 240 228 139 154 179 93 102 119 120 110 93 81 92 100 100 107 114 122 132 164 187 181 180 222 240 262 278 50 95 140 238 261 263 267 277 255 263 277 290 292
220 234 234 214 167 99 143 128 93 66 108 98 94 89 99 112 117 112 112 116 120 126 137 161 204 209 207 216 224 256 244 205 208 213 231 242 247 240 239 245 254 260 265 275
234 215 242 260 174 169 175 155 144 153 118 93 100 113 131 144 128 121 119 117 121 125 126 133 150 210 262 255 153 266 297 263 246 240 238 238 242 240 233 227 233 249 265 280
274 223 224 244 225 165 183 187 175 168 169 160 147 133 129 129 118 117 118 113 110 106 103 110 114 128 342 6 57 22 307 298 286 274 257 247 243 245 246 235 229 232 228 220
269 255 230 233 227 212 193 182 175 173 178 172 158 143 128 117 109 101 93 90 90 89 91 98 98 76 9 359 23 27 352 316 298 296 299 294 277 254 248 253 256 238 232 232